Hourly Data Report for October 02, 2017

All times are specified in Local Standard Time (LST). Add 1 hour to adjust for Daylight Saving Time where and when it is observed.

VERNON AUTO
BRITISH COLUMBIA

50°13'23.900" N
119°11'36.700" W
482.00 m
1128582
71115
WJV

Download Data

Hourly Data (October 2017)
Hourly Data Report for October 2, 2017
Temp Definition
°C
Dew Point Temp Definition
°C
Rel Hum Definition
%
Wind Dir Definition
10's deg

Wind Spd Definition
km/h
Visibility Definition
km
Stn Press Definition
kPa
Hmdx Definition


Wind Chill Definition


Weather Definition


TIME
00:00 7.8 4.6 80 31 3   96.21     LegendNANA
01:00 7.6 4.2 79 28 3   96.23     LegendNANA
02:00 6.5 3.9 83 22 2   96.25     LegendNANA
03:00 5.0 2.8 86 9 3   96.30     LegendNANA
04:00 3.5 2.1 91 5 3   96.35     LegendNANA
05:00 3.3 2.0 91 9 2   96.39     LegendNANA
06:00 2.4 2.2 98 9 4   96.43     LegendNANA
07:00 3.0 3.0 100 8 3   96.48     LegendNANA
08:00 4.0 4.0 100 9 4   96.52     LegendNANA
09:00 5.8 4.9 94 8 4   96.55     LegendNANA
10:00 9.9 3.2 63 26 5   96.57     LegendNANA
11:00 12.1 2.8 53 26 7   96.57     LegendNANA
12:00 12.5 0.2 43 32 5   96.54     LegendNANA
13:00 11.5 2.3 53 10 17   96.65     LegendNANA
14:00 8.7 6.4 85 11 7   96.72     LegendNANA
15:00 10.1 6.4 78 34 1   96.67     LegendNANA
16:00 10.2 5.5 73 8 1   96.66     LegendNANA
17:00 9.2 4.8 74 8 2   96.69     LegendNANA
18:00 7.7 4.6 81 11 11   96.73     LegendNANA
19:00 6.4 3.4 81 11 12   96.78     LegendNANA
20:00 5.6 2.8 82 11 13   96.84     LegendNANA
21:00 4.5 2.2 85 11 15   96.86     LegendNANA
22:00 3.8 1.8 86 11 16   96.91     LegendNANA
23:00 3.3 1.8 90 11 14   96.93     LegendNANA

Notes on Data Quality.

Legend

  • E = Estimated
  • M = Missing
  • NA = Not Available
  • ‡ = Partner data that is not subject to review by the National Climate Archives
Date modified: